Starlink 3702

operational
NORAD ID: 52100 Int'l Des: 2022-029 Owner: SPXS Country: US Constellation: starlink
LEOCIRCULAR

Über Starlink 3702

Beschreibung wird geladen...

Live-Position

3D-Globus wird geladen...

Nächste Überflüge

Höhenverlauf

Altitude vs Time

uPlot chart will show altitude changes over time

Zweizeiliger Elementsatz

1 52100U 22029N 25304.29538866 .00000907 00000-0 75082-4 0 9996
2 52100 53.2166 309.9920 0001572 96.9504 263.1667 15.08839211201128
Epoch: 31. Okt. 2025 • Age: 31 hours

Aktueller Status

Höhe 544.3 km
Geschwindigkeit 7.60 km/s
Subsatellitenpunkt 49.22°N, 176.94°E
Startdatum 19. März 2022
Alter 3.6 years
Typ internet

Technische Details

Klassifizierung Payload
Masse 297.00 kg
Trockenmasse 275.00 kg
Gesamtmasse 297.00 kg
Länge 0.20 m
Durchmesser 2.80 m
Spannweite 9.00 m
Form Box + pan
Hersteller SPXS
Bus-Typ Starlink
Phasenstatus In Orbit
Besitzer/Staat SPXS/US

Große Konstellationen

Loading constellations...